Accueil
METAR-TAF:

METAR-TAF

Aéroports :

Aéroport international d'Adana-Sakirpasa

Adana, Turquie

latitude: 36-59N, longitude: 035-18E, altitude: 20 m

Observation

Le bulletin a été fait il y a 31 minutes, à 17:50 UTC
Vent 5 kt de nord/nord-est
Température 11°C
Humidité 76%
Pression 1015 hPa
Visibilité: 1900 m
brume

METAR: LTAF 051750Z 02005KT 1900 BR NSC 11/07 Q1015 BECMG TL1920 4000 HZ RMK RWY23 05005KT 350V060

Heure: 21:21 (18:21 UTC)


TAF: absent

Observations et prévisions météorologiques de plus de 4000 aéroports (messages METAR et TAF).

Les stations disponibles sont représentées par des disques jaunes et rouges sur la carte.

Passer la souris dessus pour voir le nom de la station.

Cliquer dessus pour voir les observations et prévisions météorologiques.

Pour changer de carte: cliquez sur les boutons verts avec une croix noire pour zoomer, sur le bouton vert avec un tiret pour effectuer un zoom arrière, ou sur les flèches vertes pour les cartes adjacentes.


METAR-TAF: